Location: Hylvaty SDH
(49.9612°N, 16.4057°E)
Time: 12:43:53
(UTC+01:00)

Tiros 1 - Pass Details

Date: 02 October 2020
Orbit: 630 x 663 km, 48.4° (Epoch: 28 October)

Event Time Altitude Azimuth Distance (km) Brightness Sun altitude
Rises 15:17:36 0° 242° (WSW) 2,942 11.7 26.8°
Reaches altitude 10° 15:19:57 10° 238° (WSW) 2,039 11.3 26.5°
Maximum altitude 15:24:32 54° 161° (SSE) 791 8.2 26.0°
Drops below altitude 10° 15:29:10 10° 85° (E) 2,065 9.4 25.4°
Sets 15:31:34 0° 81° (E) 2,983 10.1 25.2°
